Location: Lichtensteig
(47.3376°N, 9.0841°E)
Time: 10:39:05
(UTC+00:00)

FENGYUN 1C DEB - Pass Details

Date: 24 September 2021
Orbit: 837 x 877 km, 98.7° (Epoch: 26 October)

Event Time Altitude Azimuth Distance (km) Brightness Sun altitude
Rises 18:15:52 0° 180° (S) 3,451 ? -10.7°
Reaches altitude 10° 18:18:19 10° 185° (S) 2,520 ? -11.1°
Maximum altitude 18:23:45 50° 260° (W) 1,110 ? -12.0°
Drops below altitude 10° 18:29:15 10° 336° (NNW) 2,542 ? -13.0°
Sets 18:31:45 0° 342° (NNW) 3,484 ? -13.4°
